• In United Kingdom
  • List of Countries
  • For 7 days
  • Water Temperature
  • Satellite Maps
  • Weather Map
  • Weather Widgets
  • user-avatar
    Login

    Hourly Weather Sharan

    Today, 26 February, Monday

    Time Temperature Precipitation Wind Pressure Humidity
    00:00 +8°C° 0.3 mm 3 mps 588 mmHg 66%
    01:00 +8°C° 0.3 mm 3 mps 588 mmHg 69%
    02:00 +7°C° 0.3 mm 3 mps 588 mmHg 73%
    03:00 +7°C° 0.9 mm 3 mps 587 mmHg 77%
    04:00 +7°C° 0.9 mm 2 mps 587 mmHg 80%
    05:00 +6°C° 0.9 mm 2 mps 587 mmHg 83%
    06:00 +7°C° 0.3 mm 2 mps 587 mmHg 84%
    07:00 +7°C° 0.3 mm 2 mps 587 mmHg 85%
    08:00 +7°C° 0.3 mm 2 mps 587 mmHg 86%
    09:00 +8°C° 0.1 mm 3 mps 588 mmHg 79%
    10:00 +8°C° 0.1 mm 4 mps 588 mmHg 72%
    11:00 +9°C° 0.1 mm 5 mps 589 mmHg 65%
    12:00 +9°C° 0.2 mm 5 mps 588 mmHg 63%
    13:00 +10°C° 0.2 mm 5 mps 588 mmHg 61%
    14:00 +10°C° 0.2 mm 6 mps 588 mmHg 60%
    15:00 +10°C° 0.4 mm 6 mps 587 mmHg 61%
    16:00 +9°C° 0.4 mm 6 mps 587 mmHg 62%
    17:00 +9°C° 0.4 mm 7 mps 586 mmHg 63%
    18:00 +9°C° 0.6 mm 6 mps 586 mmHg 66%
    19:00 +8°C° 0.6 mm 5 mps 586 mmHg 69%
    20:00 +8°C° 0.6 mm 4 mps 586 mmHg 71%
    21:00 +7°C° 0.1 mm 4 mps 586 mmHg 73%
    22:00 +7°C° 0.1 mm 4 mps 586 mmHg 75%
    23:00 +6°C° 0.1 mm 4 mps 586 mmHg 76%

    Tomorrow, 27 February, Tuesday

    Time Temperature Precipitation Wind Pressure Humidity
    00:00 +6°C° 0 mm 4 mps 586 mmHg 78%
    01:00 +5°C° 0 mm 4 mps 585 mmHg 81%
    02:00 +5°C° 0 mm 4 mps 585 mmHg 83%
    03:00 +4°C° 0 mm 3 mps 585 mmHg 85%
    04:00 +5°C° 0 mm 2 mps 584 mmHg 87%
    05:00 +4°C° 0 mm 2 mps 584 mmHg 89%
    06:00 +4°C° 0 mm 2 mps 584 mmHg 88%
    07:00 +5°C° 0 mm 2 mps 585 mmHg 86%
    08:00 +6°C° 0 mm 1 mps 585 mmHg 85%
    09:00 +6°C° 0 mm 2 mps 586 mmHg 77%
    10:00 +7°C° 0 mm 2 mps 587 mmHg 69%
    11:00 +9°C° 0 mm 2 mps 587 mmHg 61%
    12:00 +10°C° 0 mm 2 mps 588 mmHg 56%
    13:00 +11°C° 0 mm 3 mps 588 mmHg 50%
    14:00 +12°C° 0 mm 3 mps 588 mmHg 45%
    15:00 +12°C° 0 mm 3 mps 587 mmHg 44%
    16:00 +12°C° 0 mm 3 mps 587 mmHg 43%
    17:00 +12°C° 0 mm 3 mps 587 mmHg 42%
    18:00 +12°C° 0 mm 2 mps 587 mmHg 46%
    19:00 +12°C° 0 mm 2 mps 587 mmHg 50%
    20:00 +11°C° 0 mm 1 mps 587 mmHg 54%
    21:00 +10°C° 0 mm 1 mps 587 mmHg 57%
    22:00 +10°C° 0 mm 1 mps 587 mmHg 60%
    23:00 +9°C° 0 mm 1 mps 587 mmHg 63%

    Day after tomorrow, 28 February, Wednesday

    Time Temperature Precipitation Wind Pressure Humidity
    00:00 +9°C° 0 mm 1 mps 587 mmHg 66%
    01:00 +8°C° 0 mm 1 mps 586 mmHg 69%
    02:00 +8°C° 0 mm 1 mps 586 mmHg 72%
    03:00 +7°C° 0 mm 1 mps 586 mmHg 73%
    04:00 +7°C° 0 mm 1 mps 585 mmHg 75%
    05:00 +6°C° 0 mm 1 mps 585 mmHg 76%
    06:00 +7°C° 0 mm 1 mps 586 mmHg 75%
    07:00 +7°C° 0 mm 1 mps 586 mmHg 73%
    08:00 +7°C° 0 mm 1 mps 587 mmHg 71%
    09:00 +8°C° 0 mm 1 mps 587 mmHg 67%
    10:00 +10°C° 0 mm 1 mps 588 mmHg 62%
    11:00 +11°C° 0 mm 1 mps 588 mmHg 58%
    12:00 +11°C° 0.3 mm 1 mps 588 mmHg 56%
    13:00 +12°C° 0.3 mm 2 mps 588 mmHg 54%
    14:00 +12°C° 0.3 mm 2 mps 587 mmHg 52%
    15:00 +12°C° 0.6 mm 2 mps 587 mmHg 54%
    16:00 +12°C° 0.6 mm 1 mps 587 mmHg 56%
    17:00 +11°C° 0.6 mm 1 mps 586 mmHg 58%
    18:00 +10°C° 1.1 mm 1 mps 586 mmHg 63%
    19:00 +10°C° 1.1 mm 1 mps 586 mmHg 68%
    20:00 +9°C° 1.1 mm 1 mps 586 mmHg 73%
    21:00 +9°C° 0.3 mm 1 mps 586 mmHg 75%
    22:00 +9°C° 0.3 mm 1 mps 587 mmHg 76%
    23:00 +9°C° 0.3 mm 1 mps 587 mmHg 77%

    1 March, Thursday

    Time Temperature Precipitation Wind Pressure Humidity
    00:00 +8°C° 0.2 mm 1 mps 586 mmHg 78%
    01:00 +8°C° 0.2 mm 1 mps 586 mmHg 78%
    02:00 +8°C° 0.2 mm 1 mps 585 mmHg 79%
    03:00 +8°C° 0.2 mm 1 mps 585 mmHg 79%
    04:00 +7°C° 0.2 mm 1 mps 585 mmHg 79%
    05:00 +7°C° 0.2 mm 1 mps 584 mmHg 79%
    06:00 +6°C° 0.6 mm 2 mps 584 mmHg 80%
    07:00 +6°C° 0.6 mm 2 mps 585 mmHg 80%
    08:00 +6°C° 0.6 mm 2 mps 585 mmHg 80%
    09:00 +6°C° 1.5 mm 2 mps 585 mmHg 81%
    10:00 +6°C° 1.5 mm 2 mps 585 mmHg 81%
    11:00 +6°C° 1.5 mm 2 mps 585 mmHg 81%
    12:00 +6°C° 1.2 mm 2 mps 585 mmHg 81%
    13:00 +8°C° 1.2 mm 1 mps 584 mmHg 80%
    14:00 +8°C° 1.2 mm 1 mps 584 mmHg 80%
    15:00 +8°C° 0.1 mm 1 mps 584 mmHg 78%
    16:00 +8°C° 0.1 mm 2 mps 584 mmHg 76%
    17:00 +8°C° 0.1 mm 2 mps 584 mmHg 74%
    18:00 +8°C° 0.1 mm 2 mps 584 mmHg 77%
    19:00 +8°C° 0.1 mm 1 mps 584 mmHg 80%
    20:00 +8°C° 0.1 mm 1 mps 584 mmHg 82%
    21:00 +8°C° 0.1 mm 1 mps 584 mmHg 82%
    22:00 +7°C° 0.1 mm 2 mps 584 mmHg 82%
    23:00 +6°C° 0.1 mm 2 mps 584 mmHg 82%

    2 March, Friday

    Time Temperature Precipitation Wind Pressure Humidity
    00:00 +6°C° 0 mm 2 mps 583 mmHg 82%
    01:00 +6°C° 0 mm 2 mps 583 mmHg 83%
    02:00 +5°C° 0 mm 2 mps 582 mmHg 83%
    03:00 +5°C° 0 mm 2 mps 582 mmHg 83%
    04:00 +5°C° 0 mm 2 mps 582 mmHg 83%
    05:00 +5°C° 0 mm 2 mps 582 mmHg 83%
    06:00 +5°C° 0 mm 2 mps 582 mmHg 82%
    07:00 +5°C° 0 mm 2 mps 583 mmHg 81%
    08:00 +6°C° 0 mm 2 mps 583 mmHg 80%
    09:00 +7°C° 0 mm 2 mps 584 mmHg 74%
    10:00 +8°C° 0 mm 2 mps 584 mmHg 68%
    11:00 +9°C° 0 mm 3 mps 585 mmHg 61%
    12:00 +10°C° 0.2 mm 3 mps 585 mmHg 58%
    13:00 +10°C° 0.2 mm 4 mps 584 mmHg 55%
    14:00 +11°C° 0.2 mm 4 mps 584 mmHg 51%
    15:00 +11°C° 0.4 mm 4 mps 584 mmHg 51%
    16:00 +10°C° 0.4 mm 5 mps 584 mmHg 50%
    17:00 +10°C° 0.4 mm 5 mps 583 mmHg 50%
    18:00 +10°C° 0.4 mm 4 mps 583 mmHg 54%
    19:00 +9°C° 0.4 mm 3 mps 583 mmHg 58%
    20:00 +9°C° 0.4 mm 2 mps 583 mmHg 62%
    21:00 +8°C° 0.4 mm 2 mps 583 mmHg 64%
    22:00 +8°C° 0.4 mm 2 mps 583 mmHg 65%
    23:00 +8°C° 0.4 mm 2 mps 583 mmHg 67%

    3 March, Saturday

    Time Temperature Precipitation Wind Pressure Humidity
    00:00 +7°C° 0.1 mm 2 mps 583 mmHg 69%
    01:00 +7°C° 0.1 mm 3 mps 583 mmHg 70%
    02:00 +5°C° 0.1 mm 3 mps 582 mmHg 72%
    03:00 +5°C° 0.3 mm 3 mps 582 mmHg 72%
    04:00 +5°C° 0.3 mm 3 mps 582 mmHg 73%
    05:00 +6°C° 0.3 mm 2 mps 582 mmHg 74%
    06:00 +6°C° 0.2 mm 2 mps 582 mmHg 74%
    07:00 +6°C° 0.2 mm 2 mps 582 mmHg 73%
    08:00 +6°C° 0.2 mm 2 mps 582 mmHg 73%
    09:00 +7°C° 0.1 mm 2 mps 583 mmHg 66%
    10:00 +8°C° 0.1 mm 3 mps 583 mmHg 59%
    11:00 +9°C° 0.1 mm 3 mps 583 mmHg 53%
    12:00 +8°C° 0.2 mm 4 mps 583 mmHg 49%
    13:00 +9°C° 0.2 mm 5 mps 583 mmHg 45%
    14:00 +10°C° 0.2 mm 5 mps 582 mmHg 42%
    15:00 +9°C° 0.2 mm 5 mps 582 mmHg 42%
    16:00 +9°C° 0.2 mm 5 mps 582 mmHg 42%
    17:00 +9°C° 0.2 mm 5 mps 582 mmHg 43%
    18:00 +8°C° 0.2 mm 5 mps 582 mmHg 47%
    19:00 +7°C° 0.2 mm 4 mps 582 mmHg 52%
    20:00 +7°C° 0.2 mm 4 mps 582 mmHg 56%
    21:00 +7°C° 0.1 mm 3 mps 582 mmHg 59%
    22:00 +5°C° 0.1 mm 3 mps 582 mmHg 62%
    23:00 +6°C° 0.1 mm 2 mps 582 mmHg 64%
    Show more